Location: Helsinki
(60.1699°N, 24.9384°E)
Time: 23:21:55
(UTC+02:00)

A-11 Canister half - Pass Details

Date: 29 October 2020
Orbit: 1516 x 1684 km, 47.2° (Epoch: 26 November)

Event Time Altitude Azimuth Distance (km) Brightness Sun altitude
Rises 18:16:11 0° 169° (SSE) 4,928 11.6 -13.4°
Reaches altitude 10° 18:24:03 10° 131° (SE) 3,927 10.7 -14.4°
Maximum altitude 18:24:59 10° 125° (SE) 3,911 10.7 -14.5°
Enters shadow 18:25:42 10° 121° (ESE) 3,916 10.6 -14.6°
Drops below altitude 10° 18:25:56 10° 120° (ESE) 3,921 - -14.6°
Sets 18:33:40 0° 82° (E) 4,872 - -15.6°
